Location: Marcé
(47.5801°N, 0.3280°W)
Time: 15:40:29
(UTC+01:00)

Transit 2A - Pass Details

Date: 04 December 2021
Orbit: 591 x 967 km, 66.7° (Epoch: 21 January)

Event Time Altitude Azimuth Distance (km) Brightness Sun altitude
Rises 11:46:43 0° 308° (NW) 3,661 9.0 18.6°
Reaches altitude 10° 11:51:55 10° 273° (W) 2,677 8.7 18.8°
Maximum altitude 11:53:06 11° 262° (W) 2,621 8.8 18.9°
Drops below altitude 10° 11:54:18 10° 251° (WSW) 2,648 8.9 18.9°
Sets 11:59:19 0° 215° (SW) 3,506 10.1 19.1°
